{"data":{"norad_id":32404,"intl_designator":"2008-001A","name":"THURAYA-3","alt_names":[],"object_type":"PAYLOAD","status":"ACTIVE","operator":null,"country":"UAE","launch_date":"2008-01-15","launch_site_code":"SEAL","launch_vehicle":null,"mission":null,"orbit_class":"UNKNOWN","rcs_meters":7.9621,"size_class":null,"mass_kg":null,"dimensions":null,"purposes":["comms"],"wikipedia_slug":null,"has_3d_model":false,"image_url":null,"decayed_at":null,"tle_current":{"epoch":"2026-05-22T19:02:21.628032Z","epoch_age_seconds":276097,"freshness":"STALE","line1":"1 32404U 08001A   26142.79330588 -.00000299  00000+0  00000+0 0  9999","line2":"2 32404   5.9489  35.7739 0003059 119.6380 108.9740  1.00211708 67236","mean_motion":1.00211708,"eccentricity":0.0003059,"inclination_deg":5.9489,"raan_deg":35.7739,"arg_perigee_deg":119.638,"mean_anomaly_deg":108.974,"bstar":0,"rev_number":6723,"period_min":1436.9578452849,"perigee_km":35790.541792489,"apogee_km":35816.348484441,"semimajor_km":42181.582138465,"source":"CELESTRAK","updated_at":"2026-05-25T13:38:13.856035Z"}}}